カタログに戻る

COSMOS 1816

運用中ナビゲーションPO
NORAD 17359·PAYLOAD·🇷🇺 Russia

打ち上げ Jan 29, 1987 から Plesetsk Cosmodrome

Loading…

次のパス (今後24時間)

TLE

最新Source: Space-Track

元期: Sep 14, 2026, 22:31 UTC

1 17359U 87009A   26257.93854817  .00000077  00000-0  64821-4 0  9995
2 17359  82.9255 317.8270 0031524 321.1440 221.0708 13.74646580987486

AllMySatでCOSMOS 1816をリアルタイム追跡

Download on the App Store